RH
28 27 26 24 23 23 20 15 23 27 34 36 25 24 25 22 20 21 23 23 23 21 24 24 23 23 22 20 19 22 27 29 25 24 25 26 31 36 37 42 45 35 25 20
12 13 15 17 20 24 24 23 23 22 22 29 28 23 20 18 21 22 25 26 25 24 29 25 27 24 20 18 24 33 32 25 18 16 17 18 18 21 25 30 36 44 44 36
37 37 28 17 13 11 11 10 11 14 13 15 16 15 16 21 23 26 29 31 31 34 31 33 31 27 21 26 32 26 21 18 17 18 18 18 18 18 19 20 24 29 37 42
42 38 37 10 11 10 9 10 12 14 20 22 30 33 32 22 20 27 30 34 39 36 36 36 28 23 34 32 27 22 19 19 20 21 20 18 16 14 13 14 15 18 22 29
33 39 17 14 13 15 12 9 8 9 12 14 16 21 23 26 28 31 43 44 41 39 36 27 29 39 36 33 29 27 28 28 25 22 20 17 16 14 12 11 11 11 12 14
52 44 48 24 20 12 12 16 21 22 18 16 17 22 23 27 29 35 41 42 40 33 33 44 45 43 39 33 31 32 32 32 31 30 28 25 21 17 14 14 13 14 12 11
43 54 37 26 26 28 22 27 28 25 22 19 18 18 20 29 29 30 35 38 44 46 44 43 43 40 37 37 39 41 46 50 48 40 32 24 17 12 9 8 10 11 12 14
54 64 56 35 36 31 29 30 28 28 29 29 28 26 27 29 35 44 48 47 45 43 44 46 44 40 38 41 46 51 58 59 53 44 41 32 18 11 12 11 9 7 7 8
35 34 34 33 25 28 32 34 35 34 34 36 35 34 38 46 50 49 48 46 43 52 55 47 44 47 51 55 60 63 65 67 62 57 50 38 14 7 6 5 4 4 4 4
39 36 36 37 37 36 39 39 39 40 41 43 46 47 53 56 54 54 55 50 60 59 55 60 63 65 66 68 67 70 72 73 69 60 43 15 6 5 4 4 4 3 3 3
41 39 40 41 41 41 41 42 43 44 46 48 51 56 57 59 65 64 60 66 73 74 72 70 71 72 73 70 73 79 82 74 62 39 17 8 5 5 5 5 5 4 3 3
41 45 46 43 43 46 48 49 50 52 56 56 58 61 67 71 68 73 84 87 85 80 75 73 70 71 80 88 87 79 66 39 18 11 8 6 6 6 6 6 6 6 5 5
45 46 45 46 52 52 51 53 55 61 65 67 71 77 76 77 90 94 96 96 90 80 76 78 83 88 84 67 46 26 15 10 8 8 8 8 8 8 7 7 7 7 7 6
58 72 72 65 62 62 59 54 58 68 73 77 83 85 94 92 94 96 95 94 92 88 88 85 75 55 28 17 14 11 10 10 10 10 10 10 10 10 10 9 8 8 8 8
73 69 65 63 59 59 62 64 67 70 79 89 94 94 95 96 96 95 95 94 92 81 61 42 33 24 16 11 9 11 12 12 13 12 12 14 14 15 15 15 14 12 10 10
70 76 75 71 73 67 68 74 84 91 96 97 96 96 95 95 94 91 79 61 48 37 18 8 5 5 5 6 8 11 14 15 16 16 16 18 21 22 23 22 20 19 17 14
80 81 84 84 84 82 85 92 96 98 96 96 94 88 86 82 69 42 15 7 7 8 8 9 8 8 8 9 13 16 16 17 20 24 25 27 30 33 32 29 26 24 18 16
65 72 84 90 90 92 94 94 96 96 94 89 86 80 56 15 8 10 10 9 9 9 11 11 9 9 9 10 16 18 18 19 28 34 35 35 36 34 32 28 25 21 17 16
51 60 78 86 88 91 96 97 91 90 85 75 31 8 9 11 12 12 12 16 18 19 16 14 12 11 10 13 21 22 22 31 44 48 49 50 50 46 42 36 30 21 20 20
52 60 72 91 98 96 92 88 81 33 11 10 10 11 11 12 14 16 19 20 22 26 22 17 15 13 14 19 27 26 25 34 39 38 36 35 34 34 35 36 35 29 25 26
62 77 96 94 91 77 39 14 10 10 13 17 16 15 16 18 21 23 24 23 20 30 27 20 17 16 19 26 32 33 34 37 38 34 31 29 29 30 30 29 31 33 28 27
81 87 70 36 16 12 12 14 17 22 25 25 26 26 28 28 31 30 30 33 31 29 25 21 18 19 27 36 39 41 41 40 37 36 32 32 33 33 34 33 31 34 29 26
16 14 14 16 19 22 22 22 26 30 30 32 35 39 41 36 36 39 32 31 30 26 22 19 17 22 36 41 41 41 41 38 36 36 33 33 32 31 36 36 39 39 30 26
21 23 24 29 32 33 34 38 44 40 38 39 39 36 41 46 43 40 36 31 27 22 22 22 26 32 40 38 41 44 43 40 38 38 39 39 40 39 39 44 42 37 29 27
33 35 38 39 41 40 43 40 40 33 36 37 35 37 40 40 36 32 28 24 23 24 25 29 34 33 35 46 56 51 42 43 57 69 70 68 66 53 47 50 44 37 32 29
42 42 43 43 42 48 51 48 43 37 39 39 36 37 36 34 30 24 22 23 25 27 32 37 43 42 38 47 49 48 62 76 80 80 81 80 79 76 61 54 46 43 40 33
55 57 53 49 46 47 46 46 45 42 42 43 41 38 33 26 24 27 28 28 30 34 40 46 48 45 48 52 59 78 86 84 81 80 80 79 75 73 67 60 54 46 41 41
Wind_Speed
12 14 14 14 13 14 23 26 19 13 11 16 21 22 22 20 22 22 24 24 24 26 26 24 20 18 18 20 23 24 26 27 27 27 27 27 27 27 26 26 25 25 25 26
12 14 16 21 22 25 27 27 30 30 33 25 26 26 24 23 25 24 25 26 28 28 25 22 20 20 22 23 25 26 26 26 26 26 25 25 26 26 26 26 26 26 26 26
5 9 13 19 24 28 32 32 28 32 31 27 30 30 28 26 28 27 27 30 31 24 23 21 21 23 24 26 26 26 25 24 23 23 23 24 24 25 25 24 24 25 26 26
5 7 4 8 12 13 16 20 23 26 26 25 24 26 27 26 23 25 28 26 25 23 20 20 20 23 25 25 26 26 26 26 25 25 25 25 25 26 26 26 25 25 25 25
6 9 15 21 19 18 19 20 16 17 18 21 21 19 21 21 21 21 18 18 18 18 18 20 22 24 25 25 25 25 24 24 25 26 27 27 28 28 27 27 27 26 27 26
9 5 5 5 8 8 6 13 9 11 13 16 15 17 16 15 15 14 14 15 16 18 21 23 24 26 26 27 26 24 24 24 25 26 28 29 30 30 30 30 29 28 26 27
22 10 11 17 19 16 9 7 8 7 8 11 11 13 12 11 10 10 12 16 20 22 25 27 28 27 26 25 24 24 25 28 30 31 30 30 29 30 31 31 30 30 30 29
16 9 12 12 13 11 8 8 11 12 11 13 13 13 14 14 13 14 17 22 25 27 27 26 25 25 25 25 26 28 29 30 29 29 31 33 34 34 33 32 31 31 30 29
14 8 11 9 10 11 17 20 19 18 18 18 17 17 17 17 18 22 25 27 28 26 26 25 25 25 26 28 29 30 31 32 32 33 35 36 36 34 33 33 34 33 33 32
23 24 25 25 25 24 19 21 21 23 21 20 20 21 22 24 26 27 28 26 24 25 25 26 28 29 31 32 32 34 35 35 36 37 38 37 34 33 33 34 36 36 36 36
27 25 26 28 28 29 29 28 27 26 23 24 25 26 28 29 29 29 27 26 25 26 27 28 29 29 31 34 36 36 36 36 37 39 39 37 35 35 35 35 36 37 37 38
33 32 31 30 26 27 27 26 28 27 26 26 28 28 30 30 29 29 28 27 27 27 27 27 29 31 33 35 35 36 38 39 39 38 37 37 37 37 35 37 37 36 36 37
27 26 28 30 28 28 29 27 25 25 25 27 30 30 29 28 28 29 29 28 26 26 28 31 32 31 31 35 38 39 40 40 39 38 37 38 38 39 41 37 37 36 35 36
35 33 33 33 33 31 30 28 27 26 27 27 27 27 28 29 28 28 26 25 27 28 28 29 31 33 35 39 41 41 41 40 40 39 39 38 38 39 39 40 41 39 35 35
28 27 29 30 30 29 28 28 28 27 26 27 28 29 28 24 23 23 24 25 25 26 28 32 36 38 40 42 42 41 41 40 39 39 38 38 38 38 38 38 39 39 38 35
25 27 26 26 27 27 26 25 23 22 23 25 26 24 22 22 21 19 19 23 28 31 33 34 35 35 38 39 40 40 39 38 38 38 38 37 36 36 37 38 39 39 38 36
30 29 27 28 25 25 23 21 22 23 23 23 21 19 17 15 16 19 21 23 26 28 30 32 35 36 36 36 37 38 38 37 35 35 34 34 34 36 38 39 40 40 38 37
27 27 26 25 23 22 21 21 21 21 20 19 15 13 15 16 15 18 22 25 28 31 31 32 35 37 37 35 35 36 37 36 34 33 32 33 34 35 36 38 38 38 38 37
22 23 21 19 18 18 17 17 16 12 11 13 14 14 15 18 22 24 27 31 34 35 33 35 37 39 39 38 36 36 35 34 34 34 35 36 36 36 36 37 37 37 36 36
19 18 16 14 15 15 12 11 12 12 12 14 17 20 22 25 28 30 33 37 38 38 38 39 40 41 41 39 36 36 35 35 36 38 39 40 40 40 39 38 38 37 36 36
15 13 13 12 12 11 11 11 13 15 17 21 23 25 28 31 34 37 40 43 42 41 41 41 43 43 42 40 38 38 38 39 42 42 42 41 41 41 40 39 38 36 36 37
9 10 11 11 10 11 13 16 18 20 23 25 28 32 36 38 40 42 43 46 45 44 44 43 43 42 41 40 41 41 41 43 42 39 39 39 38 38 37 36 36 35 35 37
7 8 10 12 15 18 20 21 23 27 31 34 36 38 41 43 43 44 46 44 46 45 45 46 44 41 40 40 42 43 43 41 41 42 42 41 40 39 37 35 35 35 36 37
13 14 16 17 20 24 26 26 30 33 37 40 42 43 43 44 44 44 45 46 45 46 46 43 41 40 41 42 41 40 38 41 43 43 42 40 39 38 37 35 34 33 35 36
20 21 22 25 29 32 34 36 38 40 42 43 43 42 42 42 44 45 45 46 46 46 44 41 39 39 39 38 36 38 41 42 42 40 39 38 37 36 34 33 32 32 33 35
28 30 33 36 39 41 41 39 40 43 42 42 43 43 43 43 44 45 44 43 42 42 41 40 38 36 36 37 37 38 36 33 31 31 33 32 33 33 32 31 31 31 33 35
37 38 39 40 39 37 36 37 39 41 41 43 45 45 43 41 40 40 42 43 43 41 39 35 34 33 33 34 34 30 28 29 31 33 34 34 33 33 31 31 31 31 33 34
Wind_Direction
251 256 255 256 252 240 237 243 235 242 273 268 262 258 263 260 256 260 265 262 266 280 288 289 285 284 289 296 302 305 306 306 306 304 302 301 299 298 297 296 296 293 290 286
272 266 264 264 257 256 255 251 252 252 255 256 269 276 270 266 264 264 261 260 268 276 279 278 277 281 289 296 301 304 305 305 304 303 302 302 301 300 300 297 294 291 290 287
273 283 280 280 264 255 255 260 261 256 264 266 263 267 270 265 260 257 256 263 274 275 279 278 282 288 293 298 301 303 302 301 301 303 306 307 306 305 302 300 296 293 290 288
260 287 261 264 265 274 267 260 261 262 262 263 254 259 263 266 269 261 261 266 271 274 274 280 286 292 298 302 303 303 304 306 308 310 311 310 309 308 307 305 303 298 294 292
245 224 271 269 273 270 265 268 266 271 260 258 257 260 258 263 267 268 259 257 260 264 270 277 286 290 294 297 300 302 304 307 309 310 311 312 311 310 308 308 308 306 303 299
213 243 249 289 292 297 287 279 277 272 259 258 267 261 260 256 258 255 253 256 263 273 281 287 291 294 295 295 295 296 298 302 306 308 309 310 310 309 309 308 308 306 305 302
225 241 265 265 273 280 255 262 281 292 287 280 268 262 260 255 256 256 261 271 279 284 287 290 291 291 289 289 290 295 301 306 309 309 309 309 308 306 304 302 300 299 301 302
216 223 254 266 265 248 257 274 286 287 284 279 280 265 254 253 257 266 274 281 286 287 286 285 284 284 285 287 291 296 301 304 305 305 306 307 307 304 303 302 301 300 299 299
229 242 254 275 270 275 288 288 284 279 281 282 270 257 253 257 267 277 282 287 287 286 285 286 287 287 288 290 292 295 298 300 301 302 304 306 306 303 302 302 302 302 301 299
259 267 270 273 276 278 277 278 278 280 280 269 261 260 262 269 277 280 285 285 282 282 283 287 289 289 290 292 293 297 299 300 301 303 305 305 304 303 304 306 305 305 305 302
269 272 282 279 276 273 275 274 275 272 268 264 263 263 267 274 278 282 285 284 282 284 285 286 286 289 292 293 294 296 297 299 302 304 304 303 302 303 304 308 309 308 306 305
279 286 283 279 278 280 280 276 276 273 266 262 261 265 271 274 277 283 284 284 286 287 287 287 288 292 294 295 297 298 300 303 303 303 303 302 302 302 305 309 310 311 310 308
274 276 273 271 273 273 276 277 273 266 260 260 265 266 266 272 280 282 279 279 281 283 285 288 292 295 298 298 300 302 303 303 303 303 303 304 304 304 305 305 308 310 309 308
277 273 270 272 274 273 271 269 269 268 268 266 262 263 270 278 278 274 277 282 285 288 292 295 297 301 302 301 302 303 303 302 302 303 304 304 304 305 306 307 307 307 307 307
275 270 272 271 270 272 271 268 267 266 263 261 263 273 276 275 278 284 288 289 291 295 298 299 301 301 299 300 301 301 301 301 299 298 299 300 302 303 304 305 306 307 308 308
278 275 268 263 267 266 267 269 267 265 264 269 272 270 270 278 284 287 293 297 298 300 303 304 305 306 305 304 303 301 300 300 299 298 297 298 298 299 300 301 303 305 306 307
272 269 266 269 265 263 263 261 259 260 262 263 268 275 280 283 291 295 296 298 302 306 310 311 310 312 312 310 305 302 300 299 299 297 298 298 298 298 299 301 302 302 304 305
268 269 268 265 263 262 260 260 259 260 263 268 266 270 280 285 291 296 300 303 307 310 311 309 309 308 310 309 304 301 300 301 301 300 299 298 299 301 302 302 302 302 304 304
270 267 265 263 258 255 253 256 260 252 253 262 270 272 277 285 291 296 302 307 310 308 309 305 305 306 306 306 304 301 300 299 299 298 298 298 297 298 299 302 302 302 304 304
267 262 253 243 245 245 238 238 250 257 262 269 277 282 285 291 297 301 303 305 308 310 308 305 303 303 302 302 301 300 300 301 301 301 300 299 298 297 296 297 300 302 303 303
257 240 236 233 226 232 241 248 256 266 275 282 287 291 294 297 299 300 301 301 306 304 302 299 299 300 301 300 297 296 298 300 303 303 302 300 297 295 295 296 297 299 301 303
231 222 226 231 238 250 261 267 275 282 286 289 292 294 295 296 297 298 300 301 302 300 301 301 301 301 298 295 292 294 297 301 300 299 300 301 299 300 298 296 297 295 297 302
211 222 242 258 267 271 275 281 286 288 289 290 292 293 295 296 299 300 299 300 299 301 302 303 304 302 297 294 295 296 297 297 297 298 299 297 297 298 300 296 296 297 299 301
251 259 265 274 282 285 287 289 289 288 289 292 295 297 297 297 296 296 296 297 299 301 301 301 300 299 294 296 297 295 294 295 297 298 297 296 296 296 299 296 296 296 298 302
273 271 274 283 290 293 293 291 290 291 292 292 294 294 292 293 294 298 297 298 300 300 298 300 299 294 293 294 295 297 298 299 300 298 297 295 294 294 296 294 295 296 300 304
281 281 282 286 290 292 295 295 295 296 296 294 293 294 295 298 298 298 298 299 298 298 298 299 298 293 291 290 294 298 300 300 302 303 304 303 302 297 293 291 290 295 302 308
286 287 288 287 289 291 290 290 289 290 290 292 295 298 297 297 297 298 299 299 299 299 299 297 296 295 294 294 297 297 300 305 308 307 304 302 301 298 293 287 289 295 303 310